Location: Chuathbaluk
(61.5726°N, 159.2454°W)
Time: 11:29:38
(UTC+00:00)

N. Korean satellite - Pass Details

Date: 04 November 2020
Orbit: 453 x 503 km, 97.2° (Epoch: 04 December)

Event Time Altitude Azimuth Distance (km) Brightness Sun altitude
Rises 15:57:07 0° 19° (NNE) 2,487 10.4 -16.5°
Reaches altitude 10° 15:59:16 10° 28° (NNE) 1,607 9.5 -16.3°
Maximum altitude 16:02:30 38° 98° (E) 718 8.0 -15.9°
Drops below altitude 10° 16:05:43 10° 168° (SSE) 1,599 9.4 -15.5°
Sets 16:07:51 0° 177° (S) 2,473 10.3 -15.2°
